Location: �bnet
(46.9957°N, 8.4908°E)
Time: 01:07:08
(UTC+00:00)

Cosmos 2297 - Pass Details

Date: 11 May 2021
Orbit: 837 x 857 km, 71.0° (Epoch: 18 June)

Event Time Altitude Azimuth Distance (km) Brightness Sun altitude
Exits shadow 21:22:26 35° 132° (SE) 1,348 4.2 -19.5°
Maximum altitude 21:23:30 38° 107° (ESE) 1,274 4.3 -19.6°
Drops below altitude 10° 21:28:42 10° 41° (NE) 2,476 6.4 -20.0°
Sets 21:31:17 0° 33° (NNE) 3,413 7.2 -20.3°
